Location: Melita
(38.4566°N, 122.6369°W)
Time: 13:18:47
(UTC+00:00)

STARLINK-1053 - Pass Details

Date: 24 January 2020
Orbit: 548 x 551 km, 53.0° (Epoch: 28 February)

Event Time Altitude Azimuth Distance (km) Brightness Sun altitude
Rises 14:39:30 0° 229° (SW) 2,703 6.8 -8.6°
Reaches altitude 10° 14:41:43 10° 230° (SW) 1,814 6.0 -8.2°
Maximum altitude 14:45:51 83° 317° (NW) 557 3.6 -7.5°
Drops below altitude 10° 14:50:00 10° 47° (NE) 1,825 6.7 -6.7°
Sets 14:52:15 0° 49° (NE) 2,722 7.6 -6.3°
